$Date,$Time,DM0201B,DM0203B,DM0205B,DM0207B,DM0209B
10/31/98,00:00:01,49,7,-19,215,962
10/31/98,00:05:01,27,8,-19,225,962
10/31/98,00:10:01,42,24,-19,194,962
10/31/98,00:15:01,49,13,-19,279,962
10/31/98,00:20:01,33,2,-19,225,962
10/31/98,00:25:01,37,5,-19,291,962
10/31/98,00:30:01,38,21,-19,215,962
10/31/98,00:35:01,35,17,-19,294,962
10/31/98,00:40:01,42,28,-18,239,962
10/31/98,00:45:01,31,24,-18,240,962
10/31/98,00:50:01,34,14,-18,268,962
10/31/98,00:55:01,43,1,-18,276,962
10/31/98,01:00:01,15,53,-18,274,962
10/31/98,01:05:01,32,23,-18,240,962
10/31/98,01:10:01,9,354,-18,255,962
10/31/98,01:15:01,41,22,-17,348,962
10/31/98,01:20:01,14,47,-17,247,962
10/31/98,01:25:01,33,34,-17,246,962
10/31/98,01:30:01,69,35,-17,271,962
10/31/98,01:35:01,36,26,-17,291,962
10/31/98,01:40:01,33,20,-17,267,962
10/31/98,01:45:01,36,5,-17,317,962
10/31/98,01:50:01,50,12,-17,284,962
10/31/98,01:55:01,41,31,-17,354,962
10/31/98,02:00:01,42,349,-16,302,962
10/31/98,02:05:01,34,30,-17,355,962
10/31/98,02:10:01,16,25,-16,334,962
10/31/98,02:15:01,11,13,-16,297,962
10/31/98,02:20:01,43,355,-15,325,962
10/31/98,02:25:01,15,11,-13,318,962
10/31/98,02:30:01,32,23,-13,324,962
10/31/98,02:35:01,62,15,-14,249,962
10/31/98,02:40:01,51,25,-14,318,962
10/31/98,02:45:01,31,13,-14,239,962
10/31/98,02:50:01,32,26,-13,347,962
10/31/98,02:55:01,36,29,-13,286,962
10/31/98,03:00:01,35,358,-13,340,962
10/31/98,03:05:01,15,10,-12,359,962
10/31/98,03:10:01,38,22,-12,340,962
10/31/98,03:15:01,29,10,-12,284,962
10/31/98,03:20:01,25,24,-11,338,962
10/31/98,03:25:01,49,21,-10,359,962
10/31/98,03:30:01,30,18,-10,285,962
10/31/98,03:35:01,53,5,-11,331,962
10/31/98,03:40:01,29,14,-10,343,962
10/31/98,03:45:01,23,10,-10,301,962
10/31/98,03:50:01,35,9,-10,245,962
10/31/98,03:55:01,15,34,-9,190,962
10/31/98,04:00:01,26,23,-9,363,962
10/31/98,04:05:01,26,15,-10,366,962
10/31/98,04:10:01,22,14,-8,367,962
10/31/98,04:15:01,36,26,-8,354,962
10/31/98,04:20:01,33,12,-9,346,962
10/31/98,04:25:01,26,34,-7,362,962
10/31/98,04:30:01,41,18,-9,335,962
10/31/98,04:35:01,27,2,-10,224,962
10/31/98,04:40:01,25,13,-10,344,962
10/31/98,04:45:01,42,13,-11,356,962
10/31/98,04:50:01,42,4,-11,264,962
10/31/98,04:55:01,46,359,-12,269,962
10/31/98,05:00:01,33,6,-11,316,962
10/31/98,05:05:01,16,7,-11,289,960
10/31/98,05:10:01,18,5,-9,379,960
10/31/98,05:15:01,5,1,-8,370,960
10/31/98,05:20:01,21,353,-8,369,960
10/31/98,05:25:01,25,3,-9,372,960
10/31/98,05:30:01,44,6,-9,370,960
10/31/98,05:35:01,29,351,-9,367,960
10/31/98,05:40:01,18,12,-10,226,960
10/31/98,05:45:01,32,341,-11,276,960
10/31/98,05:50:01,39,359,-10,209,960
10/31/98,05:55:01,36,3,-9,182,960
10/31/98,06:00:01,24,5,-10,162,960
10/31/98,06:05:01,32,12,-10,207,960
10/31/98,06:10:01,33,7,-11,219,960
10/31/98,06:15:01,31,3,-10,259,960
10/31/98,06:20:01,45,359,-11,310,960
10/31/98,06:25:01,31,358,-11,338,960
10/31/98,06:30:01,41,359,-11,337,960
10/31/98,06:35:01,44,4,-12,337,960
10/31/98,06:40:01,44,355,-12,317,960
10/31/98,06:45:01,45,359,-13,339,960
10/31/98,06:50:01,33,359,-13,292,960
10/31/98,06:55:01,32,5,-12,293,960
10/31/98,07:00:01,42,3,-13,251,960
10/31/98,07:05:01,42,353,-13,298,960
10/31/98,07:10:01,34,4,-13,321,960
10/31/98,07:15:01,25,4,-13,298,960
10/31/98,07:20:01,36,2,-13,289,960
10/31/98,07:25:01,26,345,-13,299,960
10/31/98,07:30:01,19,358,-13,285,960
10/31/98,07:35:01,22,353,-14,283,960
10/31/98,07:40:01,21,6,-13,282,960
10/31/98,07:45:01,30,7,-14,273,960
10/31/98,07:50:01,18,1,-14,270,960
10/31/98,07:55:01,18,352,-15,264,960
10/31/98,08:00:01,27,357,-15,232,960
10/31/98,08:05:01,27,355,-15,211,960
10/31/98,08:10:01,23,1,-15,229,960
10/31/98,08:15:01,25,1,-14,237,960
10/31/98,08:20:01,15,1,-13,234,960
10/31/98,08:25:01,13,356,-13,228,960
10/31/98,08:30:01,13,356,-13,217,958
10/31/98,08:35:01,11,356,-13,219,958
10/31/98,08:40:01,22,356,-13,217,958
10/31/98,08:45:01,12,356,-12,209,958
10/31/98,08:50:01,12,356,-12,203,958
10/31/98,08:55:01,12,356,-13,197,958
10/31/98,09:00:01,12,356,-12,191,958
10/31/98,09:05:01,22,356,-12,185,958
10/31/98,09:10:01,22,346,-12,179,958
10/31/98,09:15:01,22,346,-12,175,958
10/31/98,09:20:01,22,346,-13,169,958
10/31/98,09:25:01,22,346,-13,138,958
10/31/98,09:30:01,22,346,-14,66,958
10/31/98,09:35:01,22,346,-14,36,958
10/31/98,09:40:01,22,346,-15,36,958
10/31/98,09:45:01,22,346,-15,72,958
10/31/98,09:50:01,22,346,-15,135,958
10/31/98,09:55:01,22,346,-15,133,958
10/31/98,10:00:01,22,346,-16,127,958
10/31/98,10:05:01,22,346,-17,123,958
10/31/98,10:10:01,22,346,-18,121,958
10/31/98,10:15:01,32,346,-18,115,958
10/31/98,10:20:01,32,346,-19,113,958
10/31/98,10:25:01,32,346,-19,109,958
10/31/98,10:30:01,32,346,-19,105,958
10/31/98,10:35:01,32,346,-19,103,958
10/31/98,10:40:01,32,346,-20,99,958
10/31/98,10:45:01,32,346,-20,97,958
10/31/98,10:50:01,32,346,-20,95,958
10/31/98,10:55:01,32,346,-20,91,958
10/31/98,11:00:01,42,346,-20,89,958
10/31/98,11:05:01,42,356,-21,87,958
10/31/98,11:10:01,42,356,-21,85,958
10/31/98,11:15:01,42,356,-21,83,958
10/31/98,11:20:01,52,356,-21,81,958
10/31/98,11:25:01,41,356,-21,79,958
10/31/98,11:30:01,41,356,-21,79,958
10/31/98,11:35:01,41,356,-21,75,958
10/31/98,11:40:01,41,356,-21,75,958
10/31/98,11:45:01,41,356,-21,73,958
10/31/98,11:50:01,41,356,-21,73,958
10/31/98,11:55:01,41,356,-21,71,958
10/31/98,12:00:01,41,356,-21,71,958
10/31/98,12:05:01,41,356,-21,71,956
10/31/98,12:10:01,41,356,-21,71,956
10/31/98,12:15:01,41,356,-21,69,956
10/31/98,12:20:01,41,356,-21,69,956
10/31/98,12:25:01,41,356,-21,69,956
10/31/98,12:30:01,41,356,-21,69,956
10/31/98,12:35:01,41,356,-21,71,956
10/31/98,12:40:01,31,356,-21,71,956
10/31/98,12:45:01,31,356,-21,71,956
10/31/98,12:50:01,31,356,-21,71,956
10/31/98,12:55:01,31,356,-21,71,956
10/31/98,13:00:01,31,356,-21,71,956
10/31/98,13:05:01,41,356,-21,71,956
10/31/98,13:10:01,41,356,-21,71,956
10/31/98,13:15:01,41,356,-21,73,956
10/31/98,13:20:01,41,356,-21,75,956
10/31/98,13:25:01,41,356,-21,75,956
10/31/98,13:30:01,31,356,-21,75,956
10/31/98,13:35:01,31,356,-21,77,956
10/31/98,13:40:01,31,356,-21,79,956
10/31/98,13:45:01,31,356,-21,80,956
10/31/98,13:50:01,31,356,-21,78,956
10/31/98,13:55:01,31,356,-21,36,956
10/31/98,14:00:01,21,4,-22,19,956
10/31/98,14:05:01,21,4,-22,19,956
10/31/98,14:10:01,21,4,-22,19,956
10/31/98,14:15:01,11,4,-22,40,956
10/31/98,14:20:01,11,4,-22,45,956
10/31/98,14:25:01,11,4,-22,37,956
10/31/98,14:30:01,21,357,-21,89,956
10/31/98,14:35:01,31,357,-21,100,956
10/31/98,14:40:01,31,357,-21,102,956
10/31/98,14:45:01,31,357,-21,104,956
10/31/98,14:50:01,31,357,-21,108,956
10/31/98,14:55:01,31,357,-21,110,956
10/31/98,15:00:01,31,357,-21,114,956
10/31/98,15:05:01,31,357,-21,116,956
10/31/98,15:10:01,21,357,-21,118,956
10/31/98,15:15:01,21,337,-21,122,956
10/31/98,15:20:01,21,337,-21,124,956
10/31/98,15:25:01,21,337,-21,128,956
10/31/98,15:30:01,21,337,-21,132,956
10/31/98,15:35:01,21,327,-21,136,954
10/31/98,15:40:01,21,327,-21,146,954
10/31/98,15:45:01,21,327,-21,107,954
10/31/98,15:50:01,26,327,-21,120,954
10/31/98,15:55:01,23,327,-21,96,954
10/31/98,16:00:01,12,327,-21,121,954
10/31/98,16:05:01,12,327,-21,140,954
10/31/98,16:10:01,12,337,-21,123,954
10/31/98,16:15:01,12,337,-21,127,954
10/31/98,16:20:01,12,347,-21,172,954
10/31/98,16:25:01,12,347,-21,171,954
10/31/98,16:30:01,12,347,-21,158,954
10/31/98,16:35:01,12,347,-21,184,954
10/31/98,16:40:01,12,347,-21,171,954
10/31/98,16:45:01,12,347,-21,143,954
10/31/98,16:50:01,22,347,-21,178,954
10/31/98,16:55:01,22,347,-21,176,954
10/31/98,17:00:01,22,347,-21,192,954
10/31/98,17:05:01,11,347,-21,206,954
10/31/98,17:10:01,11,337,-21,215,954
10/31/98,17:15:01,11,316,-21,213,954
10/31/98,17:20:01,11,306,-21,217,954
10/31/98,17:25:01,11,306,-21,219,954
10/31/98,17:30:01,11,306,-21,221,954
10/31/98,17:35:01,11,306,-21,225,954
10/31/98,17:40:01,11,316,-21,229,954
10/31/98,17:45:01,11,316,-21,231,954
10/31/98,17:50:01,11,316,-21,230,954
10/31/98,17:55:01,11,316,-21,236,954
10/31/98,18:00:01,11,316,-21,238,954
10/31/98,18:05:01,11,316,-21,240,954
10/31/98,18:10:01,11,316,-21,242,954
10/31/98,18:15:01,24,296,-21,244,954
10/31/98,18:20:01,14,286,-21,246,954
10/31/98,18:25:01,14,288,-21,246,954
10/31/98,18:30:01,22,288,-21,243,954
10/31/98,18:35:01,12,288,-21,239,954
10/31/98,18:40:01,11,288,-21,241,954
10/31/98,18:45:01,26,288,-21,245,954
10/31/98,18:50:01,15,288,-21,243,954
10/31/98,18:55:01,25,299,-21,247,954
10/31/98,19:00:01,25,299,-21,249,954
10/31/98,19:05:01,25,299,-21,251,954
10/31/98,19:10:01,25,309,-21,251,954
10/31/98,19:15:01,25,309,-21,249,954
10/31/98,19:20:01,25,319,-21,243,954
10/31/98,19:25:01,37,319,-21,245,954
10/31/98,19:30:01,37,319,-21,245,954
10/31/98,19:35:01,37,319,-21,241,954
10/31/98,19:40:01,37,319,-21,235,954
10/31/98,19:45:01,38,319,-21,233,954
10/31/98,19:50:01,64,319,-21,233,954
10/31/98,19:55:01,40,319,-21,231,954
10/31/98,20:00:01,47,329,-21,229,954
10/31/98,20:05:01,38,336,-21,229,952
10/31/98,20:10:01,41,326,-21,223,952
10/31/98,20:15:01,49,336,-21,217,952
10/31/98,20:20:01,35,337,-21,204,952
10/31/98,20:25:01,37,345,-21,204,952
10/31/98,20:30:01,36,348,-20,204,952
10/31/98,20:35:01,25,349,-20,204,952
10/31/98,20:40:01,27,339,-20,198,952
10/31/98,20:45:01,39,340,-20,200,952
10/31/98,20:50:01,39,340,-20,200,952
10/31/98,20:55:01,39,330,-20,200,952
10/31/98,21:00:01,50,330,-20,194,952
10/31/98,21:05:01,49,330,-20,196,952
10/31/98,21:10:01,48,340,-20,196,952
10/31/98,21:15:01,51,340,-20,194,952
10/31/98,21:20:01,51,331,-20,192,952
10/31/98,21:25:01,51,339,-20,190,952
10/31/98,21:30:01,41,337,-20,190,952
10/31/98,21:35:01,50,337,-20,190,952
10/31/98,21:40:01,28,343,-20,190,952
10/31/98,21:45:01,49,335,-20,190,952
10/31/98,21:50:01,46,325,-20,190,952
10/31/98,21:55:01,50,335,-20,190,952
10/31/98,22:00:01,41,335,-20,188,952
10/31/98,22:05:01,38,334,-20,186,952
10/31/98,22:10:01,38,326,-20,186,952
10/31/98,22:15:01,38,320,-20,186,952
10/31/98,22:20:01,34,341,-20,186,952
10/31/98,22:25:01,38,337,-20,188,952
10/31/98,22:30:01,41,337,-20,188,952
10/31/98,22:35:01,24,353,-20,187,952
10/31/98,22:40:01,42,343,-20,188,952
10/31/98,22:45:01,33,353,-20,188,952
10/31/98,22:50:01,38,344,-20,190,952
10/31/98,22:55:01,57,329,-20,190,952
10/31/98,23:00:01,43,337,-20,189,952
10/31/98,23:05:01,40,344,-20,191,952
10/31/98,23:10:01,16,348,-20,191,952
10/31/98,23:15:01,37,350,-20,192,952
10/31/98,23:20:01,39,330,-19,194,952
10/31/98,23:25:01,24,356,-19,192,952
10/31/98,23:30:01,39,4,-20,192,952
10/31/98,23:35:01,24,346,-20,195,952
10/31/98,23:40:01,27,343,-19,195,952
10/31/98,23:45:01,14,319,-19,197,952
10/31/98,23:50:01,14,341,-19,197,952
10/31/98,23:55:01,36,330,-19,197,952
11/01/98,00:00:01,,,,,
